DAN315 EGKK-LFMP

Flight info

Callsign DAN315
Flight time 1h 24m
Altitude 33000
Route SFD UY47 DRAKE L151 SITET UN859 SOPIL DCT BALAN DCT EVPOK DCT NARAK DCT GAI G36 ORBIL
Aircraft B722/M-SDFHIRWY/C

Departure

Time 2026-05-06 18:13
Airport London Gatwick Airport (EGKK)

Arrival

Time 2026-05-06 19:38
Airport Perpignan-Rivesaltes (Llabanère) Airport (LFMP)
Time Latitude Longitude Altitude Speed Heading
2026-05-06 17:31 51.16199 -0.18338 208 ft 0 kts 258°
2026-05-06 17:53 51.16200 -0.18331 208 ft 2 kts 256°
2026-05-06 17:53 51.16203 -0.18305 220 ft 2 kts 258°
2026-05-06 17:53 51.16207 -0.18280 214 ft 2 kts 258°
2026-05-06 17:53 51.16210 -0.18254 214 ft 2 kts 259°
2026-05-06 17:54 51.16214 -0.18229 213 ft 2 kts 249°
2026-05-06 17:54 51.16227 -0.18218 215 ft 2 kts 176°
2026-05-06 17:54 51.16240 -0.18221 208 ft 1 kts 168°
2026-05-06 17:54 51.16241 -0.18222 208 ft 0 kts 169°
2026-05-06 18:01 51.16225 -0.18216 216 ft 6 kts 168°
2026-05-06 18:01 51.16163 -0.18195 210 ft 11 kts 167°
2026-05-06 18:02 51.16076 -0.18163 208 ft 14 kts 168°
2026-05-06 18:02 51.15971 -0.18127 208 ft 17 kts 168°
2026-05-06 18:02 51.15850 -0.18085 211 ft 18 kts 168°
2026-05-06 18:02 51.15734 -0.18044 217 ft 15 kts 168°
2026-05-06 18:03 51.15679 -0.18112 212 ft 12 kts 257°
2026-05-06 18:03 51.15658 -0.18260 215 ft 15 kts 257°
2026-05-06 18:03 51.15600 -0.18353 208 ft 14 kts 173°
2026-05-06 18:03 51.15498 -0.18318 214 ft 17 kts 167°
2026-05-06 18:04 51.15375 -0.18275 214 ft 20 kts 167°
2026-05-06 18:04 51.15254 -0.18233 208 ft 12 kts 168°
2026-05-06 18:04 51.15190 -0.18283 218 ft 13 kts 262°
2026-05-06 18:04 51.15168 -0.18456 211 ft 19 kts 258°
2026-05-06 18:05 51.15138 -0.18683 210 ft 23 kts 258°
2026-05-06 18:05 51.15103 -0.18940 210 ft 23 kts 258°
2026-05-06 18:05 51.15070 -0.19187 211 ft 19 kts 257°
2026-05-06 18:05 51.15009 -0.19268 210 ft 11 kts 177°
2026-05-06 18:06 51.14955 -0.19345 216 ft 14 kts 257°
2026-05-06 18:06 51.14930 -0.19531 210 ft 20 kts 258°
2026-05-06 18:06 51.14895 -0.19779 219 ft 26 kts 257°
2026-05-06 18:06 51.14868 -0.19979 212 ft 30 kts 258°
2026-05-06 18:07 51.14824 -0.20295 217 ft 28 kts 258°
2026-05-06 18:07 51.14786 -0.20573 212 ft 24 kts 257°
2026-05-06 18:07 51.14751 -0.20823 218 ft 20 kts 258°
2026-05-06 18:07 51.14734 -0.20946 211 ft 5 kts 257°
2026-05-06 18:08 51.14728 -0.20993 213 ft 7 kts 257°
2026-05-06 18:08 51.14717 -0.21069 208 ft 7 kts 257°
2026-05-06 18:08 51.14710 -0.21122 215 ft 3 kts 258°
2026-05-06 18:08 51.14707 -0.21144 212 ft 0 kts 258°
2026-05-06 18:10 51.14706 -0.21150 211 ft 3 kts 258°
2026-05-06 18:10 51.14698 -0.21215 219 ft 9 kts 258°
2026-05-06 18:10 51.14683 -0.21311 217 ft 6 kts 249°
2026-05-06 18:10 51.14671 -0.21333 210 ft 1 kts 207°
2026-05-06 18:11 51.14661 -0.21337 218 ft 3 kts 192°
2026-05-06 18:11 51.14632 -0.21334 212 ft 3 kts 169°
2026-05-06 18:11 51.14624 -0.21332 209 ft 0 kts 169°
2026-05-06 18:11 51.14622 -0.21331 209 ft 2 kts 169°
2026-05-06 18:12 51.14574 -0.21309 212 ft 11 kts 154°
2026-05-06 18:12 51.14522 -0.21221 213 ft 8 kts 114°
2026-05-06 18:12 51.14520 -0.21179 212 ft 1 kts 81°
2026-05-06 18:12 51.14539 -0.21035 221 ft 38 kts 78°
2026-05-06 18:13 51.14642 -0.20291 215 ft 98 kts 77°
2026-05-06 18:13 51.14830 -0.18959 224 ft 145 kts 75°
2026-05-06 18:13 51.15049 -0.17355 656 ft 153 kts 77°
2026-05-06 18:13 51.15221 -0.15673 1342 ft 156 kts 78°
2026-05-06 18:14 51.15387 -0.13925 1897 ft 163 kts 76°
2026-05-06 18:14 51.15509 -0.12038 2217 ft 187 kts 91°
2026-05-06 18:14 51.15036 -0.10008 2406 ft 209 kts 126°
2026-05-06 18:14 51.13780 -0.08567 2631 ft 241 kts 159°
2026-05-06 18:15 51.12156 -0.07454 3181 ft 266 kts 152°
2026-05-06 18:15 51.10547 -0.06093 4369 ft 258 kts 152°
2026-05-06 18:15 51.08932 -0.04842 5111 ft 265 kts 156°
2026-05-06 18:15 51.07207 -0.03691 5715 ft 277 kts 158°
2026-05-06 18:16 51.05374 -0.02513 5994 ft 283 kts 159°
2026-05-06 18:16 51.03573 -0.01423 6140 ft 275 kts 160°
2026-05-06 18:16 51.01759 -0.00344 6086 ft 281 kts 160°
2026-05-06 18:16 50.99922 0.00749 6029 ft 283 kts 160°
2026-05-06 18:17 50.98075 0.01845 5999 ft 280 kts 160°
2026-05-06 18:17 50.96272 0.02919 5991 ft 274 kts 160°
2026-05-06 18:17 50.94503 0.03974 5992 ft 268 kts 160°
2026-05-06 18:17 50.92735 0.05034 6120 ft 277 kts 160°
2026-05-06 18:18 50.90935 0.06117 6258 ft 275 kts 160°
2026-05-06 18:18 50.89171 0.07176 6389 ft 274 kts 160°
2026-05-06 18:18 50.87387 0.08249 6503 ft 273 kts 160°
2026-05-06 18:18 50.85614 0.09318 6621 ft 272 kts 160°
2026-05-06 18:19 50.83835 0.10392 6746 ft 276 kts 159°
2026-05-06 18:19 50.82002 0.11327 6870 ft 277 kts 169°
2026-05-06 18:19 50.80109 0.11716 6971 ft 273 kts 177°
2026-05-06 18:19 50.78205 0.11868 6969 ft 274 kts 178°
2026-05-06 18:20 50.76289 0.11938 6964 ft 276 kts 185°
2026-05-06 18:20 50.74391 0.11461 6968 ft 276 kts 195°
2026-05-06 18:20 50.72547 0.10687 7192 ft 270 kts 194°
2026-05-06 18:20 50.70744 0.09998 7690 ft 274 kts 194°
2026-05-06 18:21 50.68855 0.09292 8240 ft 282 kts 194°
2026-05-06 18:21 50.66905 0.08565 9125 ft 286 kts 194°
2026-05-06 18:21 50.64984 0.07848 10059 ft 289 kts 194°
2026-05-06 18:21 50.62979 0.07128 10647 ft 305 kts 194°
2026-05-06 18:22 50.60849 0.06339 11069 ft 324 kts 194°
2026-05-06 18:22 50.58586 0.05500 11511 ft 343 kts 194°
2026-05-06 18:22 50.56203 0.04647 11975 ft 359 kts 193°
2026-05-06 18:22 50.53752 0.03746 12903 ft 361 kts 194°
2026-05-06 18:23 50.51292 0.02840 13719 ft 367 kts 194°
2026-05-06 18:23 50.48791 0.01919 14494 ft 370 kts 194°
2026-05-06 18:23 50.46265 0.00992 15271 ft 374 kts 194°
2026-05-06 18:23 50.43714 0.00117 16011 ft 378 kts 191°
2026-05-06 18:24 50.41146 -0.00620 16721 ft 381 kts 195°
2026-05-06 18:24 50.38571 -0.01675 17487 ft 384 kts 195°
2026-05-06 18:24 50.35960 -0.02686 18246 ft 387 kts 195°
2026-05-06 18:24 50.33318 -0.03692 18895 ft 391 kts 194°
2026-05-06 18:25 50.30642 -0.04644 19536 ft 394 kts 194°
2026-05-06 18:25 50.28002 -0.05604 20216 ft 395 kts 194°
2026-05-06 18:25 50.25322 -0.06571 20977 ft 394 kts 194°
2026-05-06 18:25 50.22641 -0.07544 21757 ft 393 kts 195°
2026-05-06 18:26 50.20109 -0.09089 22384 ft 393 kts 214°
2026-05-06 18:26 50.18025 -0.11832 22982 ft 394 kts 224°
2026-05-06 18:26 50.16000 -0.14754 23548 ft 398 kts 222°
2026-05-06 18:26 50.13661 -0.17079 24003 ft 404 kts 202°
2026-05-06 18:27 50.10885 -0.17829 24494 ft 410 kts 179°
2026-05-06 18:27 50.08107 -0.16969 24960 ft 415 kts 162°
2026-05-06 18:27 50.05420 -0.15246 25410 ft 420 kts 155°
2026-05-06 18:27 50.02827 -0.13113 25884 ft 423 kts 152°
2026-05-06 18:28 50.00233 -0.10894 26281 ft 427 kts 152°
2026-05-06 18:28 49.97619 -0.08658 26782 ft 429 kts 152°
2026-05-06 18:28 49.94995 -0.06415 27223 ft 432 kts 152°
2026-05-06 18:28 49.92354 -0.04156 27653 ft 435 kts 152°
2026-05-06 18:29 49.89696 -0.01883 28085 ft 437 kts 152°
2026-05-06 18:29 49.87021 0.00403 28503 ft 440 kts 152°
2026-05-06 18:29 49.84332 0.02702 28923 ft 443 kts 152°
2026-05-06 18:29 49.81629 0.05012 29327 ft 445 kts 152°
2026-05-06 18:30 49.78904 0.07341 29724 ft 448 kts 152°
2026-05-06 18:30 49.76204 0.09643 30088 ft 450 kts 152°
2026-05-06 18:30 49.73431 0.11936 30406 ft 452 kts 153°
2026-05-06 18:30 49.70649 0.14240 30702 ft 455 kts 153°
2026-05-06 18:31 49.67782 0.16324 30976 ft 457 kts 159°
2026-05-06 18:31 49.64765 0.17875 31261 ft 458 kts 166°
2026-05-06 18:31 49.61646 0.18923 31515 ft 460 kts 168°
2026-05-06 18:31 49.58506 0.20032 31780 ft 463 kts 167°
2026-05-06 18:32 49.55356 0.21183 32052 ft 465 kts 167°
2026-05-06 18:32 49.52202 0.22397 32299 ft 468 kts 166°
2026-05-06 18:32 49.49031 0.23639 32536 ft 471 kts 166°
2026-05-06 18:32 49.45856 0.24969 32772 ft 473 kts 165°
2026-05-06 18:33 49.42685 0.26167 32908 ft 476 kts 167°
2026-05-06 18:33 49.39474 0.27427 32995 ft 475 kts 165°
2026-05-06 18:33 49.33078 0.30000 32988 ft 474 kts 167°
2026-05-06 18:34 49.26698 0.32622 32981 ft 474 kts 164°
2026-05-06 18:34 49.20351 0.35195 32977 ft 474 kts 165°
2026-05-06 18:35 49.13984 0.37915 32971 ft 474 kts 167°
2026-05-06 18:35 49.07640 0.40626 32967 ft 474 kts 162°
2026-05-06 18:36 49.01266 0.43188 32967 ft 474 kts 165°
2026-05-06 18:36 48.94923 0.45747 32970 ft 475 kts 165°
2026-05-06 18:37 48.89566 0.47909 32970 ft 475 kts 165°
2026-05-06 18:37 48.82133 0.50949 32974 ft 476 kts 164°
2026-05-06 18:38 48.75725 0.53540 32977 ft 476 kts 167°
2026-05-06 18:38 48.69312 0.56103 32970 ft 476 kts 165°
2026-05-06 18:39 48.62910 0.58442 32972 ft 475 kts 165°
2026-05-06 18:40 48.53326 0.62188 32976 ft 474 kts 166°
2026-05-06 18:40 48.46955 0.64802 32975 ft 474 kts 164°
2026-05-06 18:41 48.40572 0.67309 32975 ft 474 kts 164°
2026-05-06 18:41 48.34267 0.69953 32973 ft 473 kts 166°
2026-05-06 18:42 48.27901 0.72509 32967 ft 473 kts 163°
2026-05-06 18:42 48.21522 0.74916 32966 ft 472 kts 167°
2026-05-06 18:43 48.15183 0.77577 32965 ft 472 kts 167°
2026-05-06 18:43 48.08826 0.79861 32965 ft 472 kts 166°
2026-05-06 18:44 48.02449 0.82333 32966 ft 473 kts 166°
2026-05-06 18:44 47.96069 0.84776 32968 ft 473 kts 166°
2026-05-06 18:45 47.89685 0.87206 32966 ft 474 kts 166°
2026-05-06 18:45 47.83335 0.89642 32965 ft 474 kts 166°
2026-05-06 18:46 47.76933 0.92101 32957 ft 474 kts 166°
2026-05-06 18:46 47.70542 0.94557 32962 ft 474 kts 166°
2026-05-06 18:47 47.64144 0.97019 32961 ft 475 kts 166°
2026-05-06 18:47 47.57744 0.99471 32966 ft 475 kts 166°
2026-05-06 18:48 47.51392 1.01894 32968 ft 474 kts 166°
2026-05-06 18:48 47.44998 1.04324 32964 ft 474 kts 167°
2026-05-06 18:49 47.38468 1.05515 32957 ft 473 kts 181°
2026-05-06 18:49 47.31898 1.04977 32965 ft 472 kts 184°
2026-05-06 18:50 47.25319 1.04577 32965 ft 473 kts 182°
2026-05-06 18:50 47.18774 1.04377 32961 ft 473 kts 182°
2026-05-06 18:51 47.12169 1.04204 32954 ft 475 kts 182°
2026-05-06 18:51 47.05549 1.04017 32956 ft 476 kts 182°
2026-05-06 18:52 46.98923 1.03789 32960 ft 476 kts 183°
2026-05-06 18:52 46.92306 1.03455 32958 ft 476 kts 182°
2026-05-06 18:53 46.85699 1.03137 32960 ft 477 kts 182°
2026-05-06 18:53 46.79057 1.02823 32960 ft 477 kts 182°
2026-05-06 18:54 46.72417 1.02545 32958 ft 476 kts 184°
2026-05-06 18:54 46.65785 1.02324 32957 ft 477 kts 181°
2026-05-06 18:55 46.59203 1.01954 32954 ft 476 kts 182°
2026-05-06 18:55 46.52565 1.01689 32949 ft 477 kts 180°
2026-05-06 18:56 46.47082 1.02605 32949 ft 478 kts 169°
2026-05-06 18:56 46.40678 1.05214 32957 ft 477 kts 164°
2026-05-06 18:57 46.34325 1.08099 32957 ft 478 kts 163°
2026-05-06 18:57 46.27985 1.11022 32957 ft 478 kts 163°
2026-05-06 18:58 46.21639 1.13944 32957 ft 479 kts 163°
2026-05-06 18:58 46.15325 1.16848 32955 ft 479 kts 163°
2026-05-06 18:59 46.09447 1.19549 32950 ft 479 kts 163°
2026-05-06 18:59 46.03084 1.22472 32951 ft 480 kts 163°
2026-05-06 19:00 45.96710 1.25396 32949 ft 480 kts 163°
2026-05-06 19:00 45.90384 1.28297 32948 ft 480 kts 163°
2026-05-06 19:01 45.84026 1.31212 32949 ft 479 kts 163°
2026-05-06 19:01 45.77675 1.34122 32946 ft 479 kts 163°
2026-05-06 19:02 45.71330 1.37001 32944 ft 476 kts 163°
2026-05-06 19:02 45.65057 1.39846 32930 ft 475 kts 163°
2026-05-06 19:03 45.58765 1.42698 32919 ft 473 kts 163°
2026-05-06 19:03 45.52489 1.45542 32921 ft 472 kts 163°
2026-05-06 19:04 45.46232 1.48377 32925 ft 471 kts 163°
2026-05-06 19:04 45.39998 1.51198 32927 ft 470 kts 163°
2026-05-06 19:05 45.33800 1.54004 32926 ft 469 kts 163°
2026-05-06 19:05 45.27581 1.56818 32927 ft 468 kts 163°
2026-05-06 19:06 45.21365 1.59631 32925 ft 468 kts 164°
2026-05-06 19:06 45.15149 1.62440 32928 ft 469 kts 164°
2026-05-06 19:07 45.08915 1.65255 32932 ft 470 kts 164°
2026-05-06 19:07 45.02672 1.68014 32933 ft 470 kts 164°
2026-05-06 19:08 44.96461 1.70751 32933 ft 471 kts 165°
2026-05-06 19:08 44.90189 1.73511 32936 ft 472 kts 165°
2026-05-06 19:09 44.83910 1.76270 32941 ft 473 kts 165°
2026-05-06 19:09 44.77609 1.79037 32948 ft 474 kts 165°
2026-05-06 19:10 44.71330 1.81793 32951 ft 475 kts 165°
2026-05-06 19:10 44.65003 1.84568 32952 ft 475 kts 165°
2026-05-06 19:11 44.58681 1.87336 32957 ft 476 kts 165°
2026-05-06 19:11 44.52397 1.90086 32957 ft 476 kts 165°
2026-05-06 19:12 44.46068 1.92854 32959 ft 476 kts 165°
2026-05-06 19:12 44.39739 1.95619 32960 ft 476 kts 165°
2026-05-06 19:13 44.33417 1.98379 32972 ft 476 kts 165°
2026-05-06 19:13 44.27108 2.01087 32970 ft 476 kts 165°
2026-05-06 19:14 44.20766 2.03803 32969 ft 476 kts 166°
2026-05-06 19:14 44.14428 2.06518 32976 ft 476 kts 166°
2026-05-06 19:15 44.08087 2.09232 32942 ft 477 kts 166°
2026-05-06 19:15 44.04901 2.10596 32691 ft 478 kts 166°
2026-05-06 19:15 44.01738 2.11948 32208 ft 472 kts 166°
2026-05-06 19:15 43.98627 2.13280 31643 ft 466 kts 166°
2026-05-06 19:16 43.95545 2.14601 31066 ft 460 kts 165°
2026-05-06 19:16 43.92505 2.15907 30527 ft 455 kts 165°
2026-05-06 19:16 43.89520 2.17186 29983 ft 454 kts 165°
2026-05-06 19:16 43.86502 2.18473 29355 ft 454 kts 165°
2026-05-06 19:17 43.83480 2.19762 28741 ft 454 kts 166°
2026-05-06 19:17 43.80464 2.21048 28142 ft 452 kts 166°
2026-05-06 19:17 43.77466 2.22326 27554 ft 448 kts 166°
2026-05-06 19:17 43.74491 2.23595 26974 ft 444 kts 166°
2026-05-06 19:18 43.71555 2.24850 26402 ft 439 kts 166°
2026-05-06 19:18 43.68687 2.26079 25850 ft 435 kts 166°
2026-05-06 19:18 43.65811 2.27313 25302 ft 430 kts 166°
2026-05-06 19:18 43.62970 2.28535 24763 ft 426 kts 166°
2026-05-06 19:19 43.60154 2.29747 24227 ft 422 kts 166°
2026-05-06 19:19 43.57361 2.30952 23701 ft 418 kts 166°
2026-05-06 19:19 43.54603 2.32144 23104 ft 414 kts 166°
2026-05-06 19:19 43.51864 2.33325 22500 ft 410 kts 166°
2026-05-06 19:20 43.49143 2.34449 21899 ft 406 kts 167°
2026-05-06 19:20 43.46447 2.35578 21320 ft 403 kts 166°
2026-05-06 19:20 43.43777 2.36690 20749 ft 399 kts 167°
2026-05-06 19:20 43.41125 2.37788 20184 ft 396 kts 166°
2026-05-06 19:21 43.38529 2.38894 19642 ft 394 kts 166°
2026-05-06 19:21 43.35922 2.40007 19087 ft 392 kts 166°
2026-05-06 19:21 43.33318 2.41093 18558 ft 389 kts 166°
2026-05-06 19:21 43.30744 2.42181 18055 ft 385 kts 166°
2026-05-06 19:22 43.28199 2.43262 17567 ft 380 kts 166°
2026-05-06 19:22 43.25684 2.44305 17083 ft 376 kts 166°
2026-05-06 19:22 43.23193 2.45354 16608 ft 372 kts 167°
2026-05-06 19:22 43.20732 2.46397 16154 ft 369 kts 165°
2026-05-06 19:23 43.18428 2.47949 15717 ft 373 kts 145°
2026-05-06 19:23 43.16576 2.50447 15320 ft 375 kts 132°
2026-05-06 19:23 43.15065 2.53361 14923 ft 375 kts 120°
2026-05-06 19:23 43.13814 2.56470 14537 ft 370 kts 124°
2026-05-06 19:24 43.12410 2.59348 14158 ft 365 kts 126°
2026-05-06 19:24 43.10986 2.62195 13732 ft 360 kts 127°
2026-05-06 19:24 43.09545 2.64949 13241 ft 352 kts 129°
2026-05-06 19:24 43.08061 2.67578 12756 ft 345 kts 130°
2026-05-06 19:25 43.06616 2.70160 12288 ft 338 kts 129°
2026-05-06 19:25 43.05209 2.72698 11845 ft 331 kts 129°
2026-05-06 19:25 43.03838 2.75179 11406 ft 324 kts 129°
2026-05-06 19:25 43.02490 2.77617 11021 ft 318 kts 129°
2026-05-06 19:26 43.01175 2.80005 10666 ft 311 kts 129°
2026-05-06 19:26 42.99888 2.82344 10311 ft 305 kts 129°
2026-05-06 19:26 42.98609 2.84634 9975 ft 300 kts 130°
2026-05-06 19:26 42.97345 2.86880 9620 ft 295 kts 129°
2026-05-06 19:27 42.96129 2.89070 9291 ft 290 kts 129°
2026-05-06 19:27 42.94923 2.91245 8967 ft 285 kts 129°
2026-05-06 19:27 42.93736 2.93387 8660 ft 281 kts 129°
2026-05-06 19:27 42.92561 2.95518 8346 ft 280 kts 128°
2026-05-06 19:28 42.91380 2.97627 8036 ft 278 kts 131°
2026-05-06 19:28 42.89925 2.99268 7703 ft 270 kts 156°
2026-05-06 19:28 42.88192 3.00188 7410 ft 265 kts 165°
2026-05-06 19:28 42.86442 3.00924 7115 ft 261 kts 165°
2026-05-06 19:29 42.84710 3.01653 6817 ft 259 kts 165°
2026-05-06 19:29 42.82990 3.02375 6520 ft 257 kts 165°
2026-05-06 19:29 42.81286 3.03098 6210 ft 256 kts 164°
2026-05-06 19:29 42.79594 3.03871 5914 ft 257 kts 163°
2026-05-06 19:30 42.77898 3.04657 5597 ft 257 kts 163°
2026-05-06 19:30 42.76213 3.05438 5317 ft 255 kts 163°
2026-05-06 19:30 42.74534 3.06218 5036 ft 254 kts 163°
2026-05-06 19:30 42.72861 3.06994 4758 ft 253 kts 163°
2026-05-06 19:31 42.71225 3.07753 4511 ft 249 kts 163°
2026-05-06 19:31 42.69560 3.08318 4259 ft 244 kts 175°
2026-05-06 19:31 42.66340 3.07728 3799 ft 227 kts 205°
2026-05-06 19:32 42.64931 3.06836 3572 ft 219 kts 212°
2026-05-06 19:32 42.63649 3.05908 3407 ft 198 kts 214°
2026-05-06 19:32 42.62513 3.04980 3217 ft 183 kts 218°
2026-05-06 19:32 42.61530 3.03945 3036 ft 174 kts 224°
2026-05-06 19:33 42.60752 3.02737 2820 ft 169 kts 253°
2026-05-06 19:33 42.60820 3.01211 2645 ft 165 kts 298°
2026-05-06 19:33 42.61389 2.99871 2562 ft 163 kts 300°
2026-05-06 19:33 42.61955 2.98535 2512 ft 163 kts 301°
2026-05-06 19:34 42.62599 2.97272 2434 ft 163 kts 310°
2026-05-06 19:34 42.63446 2.96256 2355 ft 162 kts 322°
2026-05-06 19:34 42.64363 2.95403 2265 ft 161 kts 325°
2026-05-06 19:34 42.65304 2.94623 2124 ft 154 kts 327°
2026-05-06 19:35 42.66209 2.93869 1881 ft 152 kts 326°
2026-05-06 19:35 42.67097 2.93094 1612 ft 148 kts 324°
2026-05-06 19:35 42.67925 2.92398 1396 ft 134 kts 329°
2026-05-06 19:35 42.68697 2.91773 1250 ft 129 kts 327°
2026-05-06 19:36 42.69485 2.91110 1126 ft 137 kts 328°
2026-05-06 19:36 42.70307 2.90445 963 ft 137 kts 327°
2026-05-06 19:36 42.71116 2.89756 785 ft 138 kts 326°
2026-05-06 19:36 42.71939 2.89068 579 ft 138 kts 327°
2026-05-06 19:37 42.72742 2.88401 394 ft 135 kts 327°
2026-05-06 19:37 42.73553 2.87728 218 ft 136 kts 326°
2026-05-06 19:37 42.74295 2.87107 156 ft 103 kts 328°
2026-05-06 19:37 42.74632 2.86820 156 ft 75 kts 330°
2026-05-06 19:38 42.74958 2.86542 155 ft 13 kts 300°
2026-05-06 19:38 42.74972 2.86439 155 ft 9 kts 278°
2026-05-06 19:38 42.74963 2.86364 154 ft 9 kts 232°
2026-05-06 19:38 42.74901 2.86342 154 ft 11 kts 159°
2026-05-06 19:39 42.74832 2.86394 154 ft 12 kts 148°
2026-05-06 19:39 42.74757 2.86458 154 ft 13 kts 148°
2026-05-06 19:39 42.74676 2.86526 153 ft 14 kts 148°
2026-05-06 19:39 42.74588 2.86600 154 ft 15 kts 148°
2026-05-06 19:40 42.74496 2.86677 154 ft 16 kts 148°
2026-05-06 19:40 42.74403 2.86754 154 ft 15 kts 148°
2026-05-06 19:40 42.74315 2.86829 154 ft 15 kts 148°
2026-05-06 19:40 42.74229 2.86901 154 ft 14 kts 148°
2026-05-06 19:41 42.74166 2.86978 154 ft 12 kts 148°
2026-05-06 19:41 42.74122 2.87016 154 ft 11 kts 148°
2026-05-06 19:41 42.74061 2.87066 154 ft 10 kts 148°
2026-05-06 19:41 42.73980 2.87054 153 ft 11 kts 237°
2026-05-06 19:42 42.73961 2.86968 153 ft 4 kts 259°
2026-05-06 19:42 42.73957 2.86939 153 ft 5 kts 259°
2026-05-06 19:42 42.73951 2.86891 154 ft 3 kts 272°
2026-05-06 19:42 42.73957 2.86882 154 ft 1 kts 334°
2026-05-06 19:43 42.73982 2.86873 154 ft 5 kts 348°
2026-05-06 19:43 42.74001 2.86868 154 ft 1 kts 349°
2026-05-06 19:43 42.74007 2.86867 154 ft 0 kts 350°